NOAA 16 DEB

Satellite information

Favourite Embed

Satellite Type and Status

DEBRISIN ORBIT

Key statistics

Satellite NOAA 16 DEB at a glance.

Uptime

9118

Days in orbit

Revolutions

≈ 14.3

Per day

Orbit

SSO

Sun Synchronous Orbit

Inclination

98.7

Latest

Satellite identification and parameters

Extended collection of information and parameters for NOAA 16 DEB.

Object identification

Identified? True

Debris? True

Object name: NOAA 16 DEB

International designator: 2000-055EH

Object number (NORAD): 41228

Object ID (CCSDS): 41228

Country: UNITED STATES OF AMERICA (US)

Current information (Y/N): Y

RCS size: SMALL

Orbital parameters

Period: 100.824 minutes

Inclination: 98.7369 deg

SMA: 7175.768 km

Apoapsis: 812.355 km

Periapsis: 782.91 km

RAAN: 327.649 deg

Eccentricy: 0.00205172

Argument of periapsis: 141.3167 deg

Mean anomaly: 218.9488 deg

Mean motion: 14.28236748 rev/day

Mean motion (dot): 0.00005879 rev/day2

B* drag term: 0.0023695771 1/REarth

Two-line elements (TLE)

Creation date: Sept. 5, 2025, 10:27 a.m.

Reference frame: TEME

Reference center: EARTH

Epoch: Sept. 5, 2025, 4:20 a.m. UTC

TLE line 0: 0 NOAA 16 DEB

TLE line 1: 1 41228U 00055EH 25248.18117544 .00005879 00000-0 23696-2 0 9996

TLE line 2: 2 41228 98.7369 327.6490 0020517 141.3167 218.9488 14.28236748502237

Live tracking on map

Real-time ground track for satellite NOAA 16 DEB.

In-orbit conjunctions

A list of the most updated potential collisions computed for object NOAA 16 DEB.

Target Orbit TCA Probability of collision Miss distance Type
METEOR 2-8 DEB LEO 2025-07-13 12:04:17 0.000652116 63.0 (m) DEBRIS
CZ-6A R/B DEB LEO 2025-05-05 11:39:23 0.0001308376 350.0 (m) DEBRIS

Associated space launch

The NOAA K, L and M POES satellites begin the fifth generation of improved environmental monitoring in support of NOAA missions. The instrument payload has significant improvements and additions/deletions. The instrument changes have effected the spacecraft subsystems and data formats.

NOAA 16 DEB was lifted into orbit during the mission ‘Titan II SLV | NOAA 16’, on board a Titan II SLV space rocket.

The launch took place on Sept. 21, 2000, 10:22 a.m. from Space Launch Complex 4W.

For more information about the launch, click the button.

Launch to space Titan II SLV | NOAA 16
Titan II SLV | NOAA 16

Agency: N/A

Status: Launch Successful

Launch date: Sept. 21, 2000, 10:22 a.m. UTC

Rocket: Titan II SLV

Launch pad: Space Launch Complex 4W

Location: Vandenberg SFB, CA, USA

...

Latest news about this satellite

There are no fresh news available about this satellite. Check back as we update our databases every day.


Newsletter sign-up

Weekly statistics, charts and insights to help you stay on top of the space industry.